FW0979 Weather Reports


time (UTC)temp
C
wind
direction
speed
KPH
gust
KPH
rain 1hr
cm
rain 24hr
cm
rain mn
cm
humidity
%
barometer
mb
20260508193105 28 88 3.2 9.7 0.00 0.00 0.00 23 1007.0
20260508191557 28 143 4.8 9.7 0.00 0.00 0.00 23 1007.3
20260508190057 28 161 4.8 11.3 0.00 0.00 0.00 22 1007.5
20260508184554 28 305 3.2 12.9 0.00 0.00 0.00 25 1007.7
20260508183050 28 288 4.8 12.9 0.00 0.00 0.00 29 1008.1
20260508181546 28 233 1.6 14.5 0.00 0.00 0.00 32 1008.2
20260508180044 27 150 3.2 8.0 0.00 0.00 0.00 35 1008.5
20260508174547 26 276 4.8 12.9 0.00 0.00 0.00 38 1008.9
20260508173035 25 360 3.2 9.7 0.00 0.00 0.00 45 1009.0
20260508171532 24 252 3.2 11.3 0.00 0.00 0.00 48 1009.3
20260508170029 23 220 4.8 14.5 0.00 0.00 0.00 54 1009.5
20260508164525 23 179 4.8 16.1 0.00 0.00 0.00 58 1009.7
20260508163020 22 180 6.4 14.5 0.00 0.00 0.00 62 1010.0
20260508161519 21 217 4.8 12.9 0.00 0.00 0.00 66 1010.0
20260508160016 20 302 4.8 9.7 0.00 0.00 0.00 70 1010.2
20260508154510 19 263 3.2 11.3 0.00 0.00 0.00 75 1010.4
20260508153008 18 219 4.8 12.9 0.00 0.00 0.00 80 1010.6
20260508151504 17 226 9.7 9.7 0.00 0.00 0.00 86 1010.6
20260508150100 -17 0.0 0.0 0.00 0.00 0.00 1010.6
20260508144556 15 222 6.4 14.5 0.00 0.00 0.00 90 1010.9
20260508143059 15 219 6.4 14.5 0.00 0.00 0.00 90 1010.9
20260508141549 15 200 6.4 14.5 0.00 0.00 0.00 91 1010.9
20260508140054 15 211 3.2 14.5 0.00 0.00 0.00 91 1010.9
20260508134551 15 360 4.8 11.3 0.00 0.00 0.00 91 1010.8
20260508133042 15 206 3.2 11.3 0.00 0.00 0.00 91 1010.6
20260508131547 14 206 4.8 9.7 0.00 0.00 0.00 91 1010.6
20260508130059 14 207 4.8 12.9 0.00 0.00 0.00 90 1010.7
20260508124547 13 210 3.2 9.7 0.00 0.00 0.00 90 1010.5
20260508123050 13 200 8.0 17.7 0.00 0.00 0.00 89 1010.3
20260508121541 13 210 4.8 11.3 0.00 0.00 0.00 89 1010.1
20260508120031 13 212 3.2 8.0 0.00 0.00 0.00 88 1010.1
20260508114530 13 212 3.2 11.3 0.00 0.00 0.00 88 1010.2
20260508113027 13 212 4.8 11.3 0.00 0.00 0.00 87 1010.4
20260508111526 13 228 4.8 11.3 0.00 0.00 0.00 86 1010.6
20260508110027 13 231 4.8 14.5 0.00 0.00 0.00 84 1010.6
20260508104527 13 199 8.0 17.7 0.00 0.00 0.00 82 1010.6
20260508103026 13 195 6.4 16.1 0.00 0.00 0.00 82 1010.6
20260508101523 13 202 11.3 20.9 0.00 0.00 0.00 83 1010.4
20260508100019 13 158 11.3 22.5 0.00 0.00 0.00 82 1010.5
20260508094536 13 201 6.4 14.5 0.00 0.00 0.00 79 1010.6
20260508093013 13 360 4.8 14.5 0.00 0.00 0.00 77 1010.8
20260508091514 12 219 4.8 11.3 0.00 0.00 0.00 74 1010.7
20260508090004 12 360 4.8 9.7 0.00 0.00 0.00 73 1010.7
20260508084559 13 360 4.8 8.0 0.00 0.00 0.00 72 1010.9
20260508083054 13 224 4.8 11.3 0.00 0.00 0.00 71 1011.0
20260508081605 13 221 1.6 6.4 0.00 0.00 0.00 70 1011.3
20260508080054 13 219 4.8 9.7 0.00 0.00 0.00 70 1011.1
20260508074542 13 217 4.8 11.3 0.00 0.00 0.00 69 1011.3
20260508073045 13 360 6.4 9.7 0.00 0.00 0.00 68 1011.4
20260508071546 13 207 4.8 16.1 0.00 0.00 0.00 68 1011.4
20260508070048 14 212 6.4 11.3 0.00 0.00 0.00 67 1011.5
20260508064534 14 200 4.8 8.0 0.00 0.00 0.00 66 1011.9
20260508063023 15 198 3.2 8.0 0.00 0.00 0.00 64 1012.0
20260508061521 15 198 3.2 8.0 0.00 0.00 0.00 63 1012.0
20260508060021 15 202 6.4 12.9 0.00 0.00 0.00 62 1012.0
20260508054513 15 217 4.8 11.3 0.00 0.00 0.00 61 1012.1
20260508053012 16 179 6.4 14.5 0.00 0.00 0.00 60 1012.1
20260508051512 16 181 8.0 17.7 0.00 0.00 0.00 59 1012.2
20260508050011 16 213 9.7 19.3 0.00 0.00 0.00 58 1012.0
20260508044512 17 198 9.7 19.3 0.00 0.00 0.00 57 1012.0
20260508043014 17 179 11.3 22.5 0.00 0.00 0.00 55 1012.1
20260508041510 17 192 12.9 27.4 0.00 0.00 0.00 53 1012.2
20260508040011 18 205 9.7 20.9 0.00 0.00 0.00 52 1011.9
20260508034513 18 196 11.3 22.5 0.00 0.00 0.00 51 1011.7
20260508033009 18 179 9.7 17.7 0.00 0.00 0.00 49 1011.6
20260508031508 19 191 8.0 12.9 0.00 0.00 0.00 47 1011.4
20260508030109 20 179 6.4 11.3 0.00 0.00 0.00 46 1011.1
20260508024619 20 169 4.8 9.7 0.00 0.00 0.00 44 1011.1
20260508023055 20 165 4.8 11.3 0.00 0.00 0.00 43 1010.9
20260508021555 21 168 8.0 12.9 0.00 0.00 0.00 42 1010.7
20260508020107 21 184 6.4 11.3 0.00 0.00 0.00 40 1010.5
20260508014604 22 179 8.0 12.9 0.00 0.00 0.00 39 1010.4
20260508013106 22 198 9.7 19.3 0.00 0.00 0.00 38 1010.2
20260508011559 22 179 8.0 17.7 0.00 0.00 0.00 36 1010.2
20260508010104 23 165 9.7 19.3 0.00 0.00 0.00 34 1010.3
20260508004551 23 193 9.7 19.3 0.00 0.00 0.00 34 1010.2
20260508003051 24 201 11.3 20.9 0.00 0.00 0.00 33 1010.2
20260508001556 24 165 11.3 20.9 0.00 0.00 0.00 32 1010.2
20260508000054 24 202 11.3 24.1 0.00 0.00 0.00 31 1010.2
20260507234549 25 158 11.3 22.5 0.00 0.00 0.00 30 1010.3
20260507233048 25 179 11.3 24.1 0.00 0.00 0.00 31 1010.2
20260507231547 25 178 11.3 27.4 0.00 0.00 0.00 31 1010.3
20260507230043 -17 0.0 0.0 0.00 0.00 0.00 1010.3
20260507224539 -17 0.0 0.0 0.00 0.00 0.00 1010.5
20260507223039 25 141 9.7 20.9 0.00 0.00 0.00 31 1010.8
20260507221536 24 194 8.0 22.5 0.00 0.00 0.00 31 1010.9
20260507220034 24 131 8.0 20.9 0.00 0.00 0.00 31 1011.1
20260507214538 25 141 6.4 17.7 0.00 0.00 0.00 32 1011.2
20260507213039 25 203 6.4 16.1 0.00 0.00 0.00 32 1011.5
20260507211542 23 195 6.4 14.5 0.00 0.00 0.00 33 1011.7
20260507210024 -17 0.0 0.0 0.00 0.00 0.00 1012.0
20260507204520 -17 0.0 0.0 0.00 0.00 0.00 1012.2
20260507203017 22 162 4.8 17.7 0.00 0.00 0.00 37 1012.4
20260507201525 22 156 8.0 14.5 0.00 0.00 0.00 37 1012.8
20260507200017 22 360 4.8 12.9 0.00 0.00 0.00 39 1013.0
20260507194513 21 236 6.4 12.9 0.00 0.00 0.00 39 1013.3